This demonstration page uses our WeatherBlox Daily Observations layout. Learn more.

Left ArrowRight Arrow

39.01783, -85.05884

Hourly Observations for January 8, 2021

Temp ( °F °C ) Dew Point ( °F °C ) Humidity (%) Winds ( mph kmh ) Pressure ( in mb ) Visibility ( mi km ) Precip ( " mm )
12:52 am 00:52 Cloudy 33 0.6 25 -3.9 72 72 NNE 13 20 30.14 1021 10 16 0.00 0.00
1:52 am 01:52 Cloudy 32 0 24 -4.4 73 73 NNE 16 26 30.13 1020 10 16 0.00 0.00
2:41 am 02:41 Cloudy 32 0 24 -4.4 73 73 NNE 15 24 30.16 1021 10 16 0.00 0.00
2:52 am 02:52 Cloudy 32 0 24 -4.4 73 73 NNE 14 22 30.12 1020 10 16 0.00 0.00
3:52 am 03:52 Cloudy 32 0 24 -4.4 73 73 NNE 13 20 30.11 1020 10 16 0.00 0.00
4:52 am 04:52 Cloudy 32 0 23 -5 69 69 NNE 13 20 30.11 1020 10 16 0.00 0.00
4:58 am 04:58 Cloudy 32 0 23 -5 69 69 NNE 10 17 30.14 1021 10 16 0.00 0.00
5:52 am 05:52 Cloudy 32 0 24 -4.4 73 73 NNE 14 22 30.10 1019 10 16 0.00 0.00
6:52 am 06:52 Cloudy 32 0 24 -4.4 73 73 NNE 12 19 30.11 1020 10 16 0.00 0.00
7:52 am 07:52 Cloudy 31 -0.6 24 -4.4 76 76 N 13 20 30.11 1020 10 16 0.00 0.00
8:52 am 08:52 Cloudy 31 -0.6 24 -4.4 76 76 N 13 20 30.13 1020 10 16 0.00 0.00
9:52 am 09:52 Cloudy 32 0 24 -4.4 73 73 N 10 17 30.13 1020 10 16 0.00 0.00
10:52 am 10:52 Cloudy 33 0.6 24 -4.4 70 70 N 13 20 30.13 1020 10 16 0.00 0.00
11:52 am 11:52 Cloudy 33 0.6 25 -3.9 72 72 N 12 19 30.11 1020 10 16 0.00 0.00
12:52 pm 12:52 Cloudy 33 0.6 24 -4.4 70 70 NNE 13 20 30.10 1019 10 16 0.00 0.00
1:52 pm 13:52 Cloudy 33 0.6 24 -4.4 70 70 NNW 14 22 30.09 1019 10 16 0.00 0.00
2:52 pm 14:52 Cloudy 32 0 22 -5.6 66 66 N 15 24 30.09 1019 10 16 0.00 0.00
3:52 pm 15:52 Cloudy 32 0 22 -5.6 66 66 NNW 15 24 30.10 1019 10 16 0.00 0.00
4:52 pm 16:52 Cloudy 31 -0.6 22 -5.6 69 69 N 10 17 30.11 1020 10 16 0.00 0.00
5:52 pm 17:52 Cloudy 31 -0.6 22 -5.6 69 69 N 10 17 30.12 1020 10 16 0.00 0.00
6:52 pm 18:52 Cloudy 31 -0.6 22 -5.6 69 69 N 10 17 30.14 1021 10 16 0.00 0.00
7:52 pm 19:52 Cloudy 30 -1.1 22 -5.6 72 72 N 12 19 30.14 1021 10 16 0.00 0.00
8:52 pm 20:52 Cloudy 30 -1.1 22 -5.6 72 72 N 12 19 30.15 1021 10 16 0.00 0.00
9:52 pm 21:52 Cloudy 30 -1.1 22 -5.6 72 72 N 14 22 30.16 1021 10 16 0.00 0.00
10:52 pm 22:52 Cloudy 30 -1.1 21 -6.1 69 69 NNE 12 19 30.14 1021 10 16 0.00 0.00
11:52 pm 23:52 Cloudy 30 -1.1 22 -5.6 72 72 N 12 19 30.14 1021 10 16 0.00 0.00

Powered by AerisWeather